Showing default

HERMES-2, 63243

Orbit data source: Space-Track

HERMES-2, 63243 is a payload satellite owned by ASI (IT) in SSO that was launched on Sat, 15 Mar 2025 UTC via an FALCON 9 launch vehicle from the Air Force Western Test Range (AFWTR). Payload-class satellites include a variety of spacecraft equipped with specific instruments for various scientific and technological missions. These include communications satellites like Starlink; space stations such as the ISS; scientific satellites like the Hubble; Earth observation satellites from companies like Planet Labs, Umbra, and HawkEye 360; GPS; miniature CubeSats for education and research; and military/defense satellites.

Loading next visibility...
Identifier
63243, 2025-052AK
Orbit
SSO
Country
Flag of ITIT
Related business
Manufacturer
MILANP/INAFI
Mission
Operational Civil Astronomy
Bus & Motor
CUBESAT 3U, Unknown motor
Mass
5 kg wet, 5 kg dry
Launch date (UTC)
2025-03-15 (1 year ago)
Launch vehicle
FALCON 9
Launch site
Air Force Western Test Range (AFWTR)
Object type
Payload
Rocket body
Debris
Shape & HBR
Box, 0.2 m
Radar Cross Section
0.035 m², Medium (>0.1 m² and < 1m²)

Expand to show TLE details & history
Last TLE update: 7 hours ago

TLE from 7 hours ago
0 HERMES-2
1 63243U 25052AK  26254.68666928  .00005385  00000-0  17833-3 0  9998
2 63243  97.3763 149.1922 0005064 145.2438 214.9135 15.31717114 83259
Epoch: 2026-09-11T16:28Z
TLE epoch observation values (Epoch: 2026-09-11T16:28:48.225Z)
Latitude
-0.00006°
Longitude
-88.71519°
Altitude
476.641 km
Speed
7.626 km/s
True Right ascension
09h 56m 46s
True Declination
0° 00' 00"
Sunlit
Object was in daylight at epoch
Visualization orbit readout
Latitude
Unknown
Longitude
Unknown
Altitude
Unknown
Speed
Unknown
Apparent Right ascension
Unknown
Apparent Declination
Unknown
Sunlit
N/A
Visualization observer readout
Local Sidereal Time
16:08:54
Azimuth
Unknown
Elevation
Unknown
Doppler factor
Unknown
Orbital elements
Apogee altitude
471.105 km
Perigee altitude
464.171 km
Semi-major axis
6,845.775 km
Eccentricity
0.00051
Inclination
97.3763°
RAAN
149.1922°
Arg. of periapsis
145.2438°
True anomaly
214.8803°
Mean anomaly
214.9135°
Eccentric anomaly
214.8969°
Mean motion
3.83186 °/min
Orbital period
93.95 mins
BSTAR
0.00017833
Loading maneuver chart data...
Computing Atmospheric mass density...
Loading historical data...
Loading historical data...
Loading historical data...
Loading historical data...
Loading historical data...
Loading historical data...
Loading historical data...

Documentation

Showing up to 5 results
|